| time (UTC) | temp F | wind direction | speed MPH | gust MPH | rain 1hr in | rain 24hr in | rain mn in | humidity % | barometer mb |
| 20260504000334 | 52 | 220 | 0.0 | 0.0 | 0.00 | 0.00 | 0.00 | 40 | 1015.4 |
| 20260503235832 | 53 | 228 | 0.0 | 0.0 | 0.00 | 0.00 | 0.00 | 39 | 1015.4 |
| 20260503235329 | 54 | 223 | 0.0 | 0.0 | 0.00 | 0.00 | 0.00 | 38 | 1015.4 |
| 20260503234826 | 55 | 224 | 0.0 | 0.0 | 0.00 | 0.00 | 0.00 | 36 | 1015.1 |
| 20260503234324 | 56 | 221 | 0.0 | 0.0 | 0.00 | 0.00 | 0.00 | 35 | 1015.4 |
| 20260503233822 | 57 | 213 | 0.0 | 0.0 | 0.00 | 0.00 | 0.00 | 33 | 1015.1 |
| 20260503233317 | 58 | 218 | 3.0 | 3.0 | 0.00 | 0.00 | 0.00 | 30 | 1015.1 |
| 20260503232814 | 59 | 209 | 1.0 | 2.0 | 0.00 | 0.00 | 0.00 | 31 | 1015.1 |
| 20260503232311 | 59 | 211 | 2.0 | 2.0 | 0.00 | 0.00 | 0.00 | 30 | 1015.1 |
| 20260503231809 | 59 | 219 | 2.0 | 5.0 | 0.00 | 0.00 | 0.00 | 31 | 1015.4 |
| 20260503231306 | 60 | 197 | 2.0 | 3.0 | 0.00 | 0.00 | 0.00 | 30 | 1015.1 |
| 20260503230802 | 60 | 196 | 1.0 | 1.0 | 0.00 | 0.00 | 0.00 | 32 | 1015.1 |
| 20260503230259 | 60 | 213 | 1.0 | 2.0 | 0.00 | 0.00 | 0.00 | 29 | 1014.7 |
| 20260503225757 | 61 | 224 | 1.0 | 1.0 | 0.00 | 0.00 | 0.00 | 30 | 1015.1 |
| 20260503225252 | 61 | 212 | 5.0 | 7.0 | 0.00 | 0.00 | 0.00 | 30 | 1015.1 |
| 20260503224749 | 61 | 223 | 2.0 | 2.0 | 0.00 | 0.00 | 0.00 | 30 | 1015.1 |
| 20260503224247 | 62 | 204 | 3.0 | 3.0 | 0.00 | 0.00 | 0.00 | 29 | 1015.1 |
| 20260503223744 | 62 | 221 | 0.0 | 1.0 | 0.00 | 0.00 | 0.00 | 29 | 1014.7 |
| 20260503223241 | 61 | 250 | 3.0 | 5.0 | 0.00 | 0.00 | 0.00 | 28 | 1015.1 |
| 20260503222737 | 61 | 199 | 3.0 | 3.0 | 0.00 | 0.00 | 0.00 | 28 | 1015.1 |
| 20260503222235 | 61 | 209 | 4.0 | 6.0 | 0.00 | 0.00 | 0.00 | 31 | 1015.1 |
| 20260503221734 | 61 | 194 | 4.0 | 5.0 | 0.00 | 0.00 | 0.00 | 27 | 1015.1 |
| 20260503221231 | 61 | 184 | 4.0 | 6.0 | 0.00 | 0.00 | 0.00 | 27 | 1015.1 |
| 20260503220727 | 61 | 212 | 3.0 | 5.0 | 0.00 | 0.00 | 0.00 | 27 | 1015.1 |
| 20260503220224 | 61 | 199 | 4.0 | 5.0 | 0.00 | 0.00 | 0.00 | 28 | 1015.1 |
| 20260503215721 | 62 | 219 | 2.0 | 2.0 | 0.00 | 0.00 | 0.00 | 27 | 1015.4 |
| 20260503215218 | 62 | 193 | 3.0 | 3.0 | 0.00 | 0.00 | 0.00 | 26 | 1015.1 |
| 20260503214716 | 61 | 228 | 3.0 | 5.0 | 0.00 | 0.00 | 0.00 | 28 | 1015.1 |
| 20260503214212 | 61 | 225 | 4.0 | 6.0 | 0.00 | 0.00 | 0.00 | 27 | 1015.4 |
| 20260503213711 | 60 | 247 | 2.0 | 2.0 | 0.00 | 0.00 | 0.00 | 26 | 1015.1 |
| 20260503213208 | 62 | 264 | 5.0 | 7.0 | 0.00 | 0.00 | 0.00 | 25 | 1015.1 |
| 20260503212705 | 62 | 272 | 6.0 | 7.0 | 0.00 | 0.00 | 0.00 | 26 | 1015.1 |
| 20260503212202 | 61 | 209 | 2.0 | 6.0 | 0.00 | 0.00 | 0.00 | 27 | 1015.1 |
| 20260503211700 | 62 | 229 | 5.0 | 7.0 | 0.00 | 0.00 | 0.00 | 27 | 1015.4 |
| 20260503211155 | 62 | 193 | 5.0 | 7.0 | 0.00 | 0.00 | 0.00 | 29 | 1015.1 |
| 20260503210652 | 62 | 201 | 4.0 | 6.0 | 0.00 | 0.00 | 0.00 | 26 | 1015.1 |
| 20260503210148 | 62 | 228 | 3.0 | 5.0 | 0.00 | 0.00 | 0.00 | 28 | 1015.1 |
| 20260503205644 | 62 | 256 | 3.0 | 6.0 | 0.00 | 0.00 | 0.00 | 27 | 1015.4 |
| 20260503205140 | 62 | 227 | 1.0 | 2.0 | 0.00 | 0.00 | 0.00 | 29 | 1015.4 |
| 20260503204637 | 61 | 276 | 4.0 | 5.0 | 0.00 | 0.00 | 0.00 | 28 | 1015.1 |
| 20260503204135 | 61 | 203 | 1.0 | 2.0 | 0.00 | 0.00 | 0.00 | 29 | 1015.4 |
| 20260503203631 | 62 | 265 | 3.0 | 5.0 | 0.00 | 0.00 | 0.00 | 31 | 1015.4 |
| 20260503203129 | 61 | 195 | 3.0 | 6.0 | 0.00 | 0.00 | 0.00 | 30 | 1015.4 |
| 20260503202626 | 62 | 232 | 2.0 | 3.0 | 0.00 | 0.00 | 0.00 | 31 | 1015.8 |
| 20260503202124 | 61 | 254 | 3.0 | 3.0 | 0.00 | 0.00 | 0.00 | 30 | 1015.8 |
| 20260503201622 | 60 | 214 | 3.0 | 6.0 | 0.00 | 0.00 | 0.00 | 28 | 1015.8 |
| 20260503201119 | 60 | 215 | 5.0 | 6.0 | 0.00 | 0.00 | 0.00 | 28 | 1015.8 |
| 20260503200615 | 60 | 233 | 4.0 | 6.0 | 0.00 | 0.00 | 0.00 | 27 | 1015.8 |
| 20260503200112 | 61 | 253 | 3.0 | 3.0 | 0.00 | 0.00 | 0.00 | 27 | 1016.1 |
| 20260503195609 | 60 | 231 | 3.0 | 6.0 | 0.00 | 0.00 | 0.00 | 30 | 1015.8 |
| 20260503195106 | 60 | 159 | 7.0 | 8.0 | 0.00 | 0.00 | 0.00 | 31 | 1016.1 |
| 20260503194604 | 59 | 200 | 2.0 | 3.0 | 0.00 | 0.00 | 0.00 | 31 | 1016.1 |
| 20260503194103 | 61 | 218 | 7.0 | 10.0 | 0.00 | 0.00 | 0.00 | 29 | 1016.1 |
| 20260503193600 | 60 | 206 | 3.0 | 3.0 | 0.00 | 0.00 | 0.00 | 29 | 1016.1 |
| 20260503193055 | 60 | 192 | 2.0 | 3.0 | 0.00 | 0.00 | 0.00 | 33 | 1016.1 |
| 20260503192552 | 59 | 221 | 2.0 | 3.0 | 0.00 | 0.00 | 0.00 | 31 | 1016.1 |
| 20260503192048 | 59 | 194 | 4.0 | 6.0 | 0.00 | 0.00 | 0.00 | 34 | 1016.1 |
| 20260503191545 | 59 | 237 | 4.0 | 5.0 | 0.00 | 0.00 | 0.00 | 31 | 1016.5 |
| 20260503191042 | 60 | 184 | 3.0 | 3.0 | 0.00 | 0.00 | 0.00 | 33 | 1016.1 |
| 20260503190539 | 58 | 210 | 1.0 | 2.0 | 0.00 | 0.00 | 0.00 | 31 | 1016.5 |
| 20260503190036 | 59 | 234 | 4.0 | 5.0 | 0.00 | 0.00 | 0.00 | 31 | 1016.5 |
| 20260503185533 | 59 | 192 | 3.0 | 5.0 | 0.00 | 0.00 | 0.00 | 32 | 1016.9 |
| 20260503185032 | 60 | 278 | 6.0 | 7.0 | 0.00 | 0.00 | 0.00 | 33 | 1016.5 |
| 20260503184528 | 58 | 226 | 2.0 | 2.0 | 0.00 | 0.00 | 0.00 | 35 | 1016.5 |
| 20260503184025 | 58 | 233 | 2.0 | 2.0 | 0.00 | 0.00 | 0.00 | 39 | 1016.9 |
| 20260503183522 | 57 | 220 | 1.0 | 1.0 | 0.00 | 0.00 | 0.00 | 34 | 1016.9 |
| 20260503183019 | 57 | 227 | 4.0 | 6.0 | 0.00 | 0.00 | 0.00 | 32 | 1017.2 |
| 20260503182518 | 57 | 197 | 7.0 | 9.0 | 0.00 | 0.00 | 0.00 | 35 | 1016.9 |
| 20260503182015 | 57 | 249 | 5.0 | 8.0 | 0.00 | 0.00 | 0.00 | 34 | 1017.2 |
| 20260503181512 | 57 | 221 | 3.0 | 3.0 | 0.00 | 0.00 | 0.00 | 39 | 1016.9 |
| 20260503181008 | 57 | 248 | 5.0 | 6.0 | 0.00 | 0.00 | 0.00 | 32 | 1017.2 |
| 20260503180506 | 58 | 211 | 2.0 | 2.0 | 0.00 | 0.00 | 0.00 | 36 | 1017.2 |
| 20260503180002 | 57 | 213 | 2.0 | 2.0 | 0.00 | 0.00 | 0.00 | 35 | 1017.2 |
| 20260503175500 | 57 | 220 | 6.0 | 7.0 | 0.00 | 0.00 | 0.00 | 35 | 1017.2 |
| 20260503174956 | 56 | 232 | 6.0 | 9.0 | 0.00 | 0.00 | 0.00 | 34 | 1017.6 |
| 20260503174454 | 55 | 259 | 3.0 | 3.0 | 0.00 | 0.00 | 0.00 | 37 | 1017.2 |
| 20260503173949 | 56 | 226 | 3.0 | 6.0 | 0.00 | 0.00 | 0.00 | 35 | 1017.2 |
| 20260503173445 | 56 | 218 | 3.0 | 3.0 | 0.00 | 0.00 | 0.00 | 37 | 1017.2 |
| 20260503172942 | 55 | 219 | 1.0 | 1.0 | 0.00 | 0.00 | 0.00 | 38 | 1017.2 |
| 20260503172440 | 55 | 173 | 4.0 | 5.0 | 0.00 | 0.00 | 0.00 | 40 | 1017.2 |
| 20260503171936 | 56 | 227 | 4.0 | 6.0 | 0.00 | 0.00 | 0.00 | 40 | 1017.2 |
| 20260503171433 | 55 | 280 | 4.0 | 5.0 | 0.00 | 0.00 | 0.00 | 36 | 1017.2 |
| 20260503170931 | 55 | 153 | 5.0 | 6.0 | 0.00 | 0.00 | 0.00 | 40 | 1017.2 |
| 20260503170426 | 54 | 223 | 1.0 | 2.0 | 0.00 | 0.00 | 0.00 | 39 | 1017.6 |
| 20260503150819 | 49 | 192 | 5.0 | 7.0 | 0.00 | 0.00 | 0.00 | 47 | 1019.0 |
| 20260503150315 | 50 | 207 | 4.0 | 5.0 | 0.00 | 0.00 | 0.00 | 43 | 1019.0 |
| 20260503140239 | 47 | 240 | 0.0 | 1.0 | 0.00 | 0.00 | 0.00 | 51 | 1019.0 |
| 20260503131209 | 45 | 222 | 2.0 | 2.0 | 0.00 | 0.00 | 0.00 | 52 | 1019.0 |
| 20260503130706 | 45 | 316 | 2.0 | 3.0 | 0.00 | 0.00 | 0.00 | 52 | 1018.3 |
| 20260503130204 | 44 | 286 | 3.0 | 3.0 | 0.00 | 0.00 | 0.00 | 52 | 1018.3 |
| 20260503120129 | 39 | 239 | 1.0 | 2.0 | 0.00 | 0.00 | 0.00 | 59 | 1018.6 |
| 20260503110556 | 37 | 200 | 1.0 | 1.0 | 0.00 | 0.00 | 0.00 | 63 | 1017.9 |
| 20260503090444 | 38 | 196 | 1.0 | 1.0 | 0.00 | 0.00 | 0.00 | 60 | 1016.5 |
| 20260503081410 | 40 | 218 | 2.0 | 3.0 | 0.00 | 0.00 | 0.00 | 54 | 1015.8 |
| 20260503080907 | 40 | 252 | 0.0 | 1.0 | 0.00 | 0.00 | 0.00 | 54 | 1015.4 |
| 20260503080404 | 40 | 229 | 3.0 | 5.0 | 0.00 | 0.00 | 0.00 | 55 | 1015.8 |
| 20260503072840 | 40 | 258 | 2.0 | 2.0 | 0.00 | 0.00 | 0.00 | 58 | 1015.1 |
| 20260503072337 | 40 | 214 | 0.0 | 0.0 | 0.00 | 0.00 | 0.00 | 57 | 1015.4 |
| 20260503071833 | 40 | 187 | 4.0 | 7.0 | 0.00 | 0.00 | 0.00 | 58 | 1015.1 |
| 20260503071331 | 41 | 225 | 0.0 | 1.0 | 0.00 | 0.00 | 0.00 | 57 | 1015.4 |
| 20260503070827 | 40 | 311 | 2.0 | 5.0 | 0.00 | 0.00 | 0.00 | 60 | 1015.1 |
| 20260503070325 | 38 | 241 | 2.0 | 2.0 | 0.00 | 0.00 | 0.00 | 63 | 1015.4 |
| 20260503060255 | 39 | 223 | 0.0 | 0.0 | 0.00 | 0.00 | 0.00 | 65 | 1015.1 |
| 20260503054743 | 37 | 235 | 1.0 | 1.0 | 0.00 | 0.00 | 0.00 | 69 | 1015.1 |
| 20260503054240 | 36 | 224 | 0.0 | 0.0 | 0.00 | 0.00 | 0.00 | 71 | 1015.4 |
| 20260503053738 | 35 | 227 | 0.0 | 0.0 | 0.00 | 0.00 | 0.00 | 73 | 1015.1 |
| 20260503053236 | 34 | 233 | 0.0 | 0.0 | 0.00 | 0.00 | 0.00 | 75 | 1015.1 |
| 20260503052732 | 35 | 233 | 0.0 | 1.0 | 0.00 | 0.00 | 0.00 | 75 | 1015.4 |
| 20260503052229 | 34 | 232 | 0.0 | 1.0 | 0.00 | 0.00 | 0.00 | 75 | 1015.1 |
| 20260503051724 | 34 | 215 | 0.0 | 1.0 | 0.00 | 0.00 | 0.00 | 76 | 1015.1 |
| 20260503051222 | 34 | 222 | 0.0 | 0.0 | 0.00 | 0.00 | 0.00 | 76 | 1015.1 |
| 20260503050718 | 34 | 224 | 0.0 | 0.0 | 0.00 | 0.00 | 0.00 | 76 | 1015.1 |
| 20260503050215 | 35 | 244 | 1.0 | 1.0 | 0.00 | 0.00 | 0.00 | 74 | 1015.1 |
| 20260503045712 | 35 | 222 | 0.0 | 0.0 | 0.00 | 0.00 | 0.00 | 75 | 1014.7 |
| 20260503045210 | 33 | 227 | 0.0 | 0.0 | 0.00 | 0.00 | 0.00 | 78 | 1014.7 |
| 20260503044706 | 33 | 228 | 0.0 | 1.0 | 0.00 | 0.00 | 0.00 | 78 | 1015.1 |
| 20260503044204 | 33 | 232 | 0.0 | 1.0 | 0.00 | 0.00 | 0.00 | 78 | 1015.1 |
| 20260503043700 | 34 | 225 | 0.0 | 0.0 | 0.00 | 0.00 | 0.00 | 77 | 1015.1 |
| 20260503043158 | 34 | 220 | 0.0 | 0.0 | 0.00 | 0.00 | 0.00 | 77 | 1015.1 |
| 20260503042653 | 34 | 227 | 0.0 | 0.0 | 0.00 | 0.00 | 0.00 | 76 | 1015.1 |
| 20260503042150 | 35 | 233 | 0.0 | 1.0 | 0.00 | 0.00 | 0.00 | 76 | 1015.1 |
| 20260503041646 | 35 | 226 | 0.0 | 0.0 | 0.00 | 0.00 | 0.00 | 74 | 1015.1 |
| 20260503041144 | 35 | 224 | 0.0 | 0.0 | 0.00 | 0.00 | 0.00 | 73 | 1015.1 |
| 20260503040641 | 36 | 218 | 1.0 | 1.0 | 0.00 | 0.00 | 0.00 | 74 | 1015.1 |
| 20260503040139 | 37 | 227 | 0.0 | 1.0 | 0.00 | 0.00 | 0.00 | 70 | 1015.1 |
| 20260503035635 | 38 | 227 | 0.0 | 0.0 | 0.00 | 0.00 | 0.00 | 68 | 1014.7 |
| 20260503035133 | 38 | 223 | 0.0 | 0.0 | 0.00 | 0.00 | 0.00 | 66 | 1015.1 |
| 20260503034630 | 39 | 215 | 0.0 | 1.0 | 0.00 | 0.00 | 0.00 | 65 | 1014.7 |
| 20260503034127 | 39 | 219 | 0.0 | 0.0 | 0.00 | 0.00 | 0.00 | 61 | 1015.1 |
| 20260503033624 | 40 | 234 | 0.0 | 1.0 | 0.00 | 0.00 | 0.00 | 65 | 1015.1 |
| 20260503033122 | 40 | 224 | 0.0 | 0.0 | 0.00 | 0.00 | 0.00 | 62 | 1014.7 |
| 20260503032620 | 41 | 223 | 0.0 | 0.0 | 0.00 | 0.00 | 0.00 | 57 | 1014.7 |
| 20260503032118 | 41 | 215 | 0.0 | 0.0 | 0.00 | 0.00 | 0.00 | 58 | 1014.7 |
| 20260503031616 | 41 | 221 | 0.0 | 0.0 | 0.00 | 0.00 | 0.00 | 57 | 1014.3 |
| 20260503031113 | 41 | 221 | 0.0 | 0.0 | 0.00 | 0.00 | 0.00 | 55 | 1015.1 |
| 20260503030609 | 42 | 222 | 0.0 | 0.0 | 0.00 | 0.00 | 0.00 | 56 | 1014.7 |
| 20260503030106 | 42 | 229 | 0.0 | 0.0 | 0.00 | 0.00 | 0.00 | 55 | 1014.7 |
| 20260503025603 | 43 | 232 | 0.0 | 0.0 | 0.00 | 0.00 | 0.00 | 52 | 1014.7 |
| 20260503025100 | 44 | 225 | 0.0 | 0.0 | 0.00 | 0.00 | 0.00 | 51 | 1014.7 |
| 20260503024556 | 44 | 215 | 1.0 | 1.0 | 0.00 | 0.00 | 0.00 | 51 | 1014.7 |
| 20260503024054 | 44 | 224 | 0.0 | 0.0 | 0.00 | 0.00 | 0.00 | 51 | 1015.1 |
| 20260503023550 | 44 | 220 | 1.0 | 1.0 | 0.00 | 0.00 | 0.00 | 50 | 1014.7 |
| 20260503023048 | 44 | 219 | 1.0 | 1.0 | 0.00 | 0.00 | 0.00 | 50 | 1014.7 |
| 20260503022544 | 44 | 255 | 1.0 | 2.0 | 0.00 | 0.00 | 0.00 | 50 | 1015.1 |
| 20260503022038 | 43 | 245 | 2.0 | 2.0 | 0.00 | 0.00 | 0.00 | 51 | 1014.7 |
| 20260503021536 | 43 | 228 | 0.0 | 0.0 | 0.00 | 0.00 | 0.00 | 53 | 1014.7 |
| 20260503021032 | 44 | 232 | 1.0 | 1.0 | 0.00 | 0.00 | 0.00 | 52 | 1014.7 |
| 20260503020530 | 44 | 227 | 1.0 | 1.0 | 0.00 | 0.00 | 0.00 | 52 | 1014.7 |
| 20260503020026 | 44 | 221 | 0.0 | 0.0 | 0.00 | 0.00 | 0.00 | 51 | 1015.1 |
| 20260503015523 | 44 | 223 | 0.0 | 0.0 | 0.00 | 0.00 | 0.00 | 49 | 1014.7 |
| 20260503015020 | 44 | 222 | 0.0 | 0.0 | 0.00 | 0.00 | 0.00 | 51 | 1014.7 |
| 20260503014516 | 45 | 224 | 0.0 | 0.0 | 0.00 | 0.00 | 0.00 | 49 | 1014.7 |
| 20260503014015 | 45 | 226 | 0.0 | 0.0 | 0.00 | 0.00 | 0.00 | 48 | 1014.3 |
| 20260503013511 | 45 | 230 | 0.0 | 1.0 | 0.00 | 0.00 | 0.00 | 47 | 1014.7 |
| 20260503013009 | 46 | 225 | 1.0 | 1.0 | 0.00 | 0.00 | 0.00 | 47 | 1014.7 |
| 20260503012507 | 46 | 223 | 1.0 | 2.0 | 0.00 | 0.00 | 0.00 | 46 | 1014.7 |
| 20260503012002 | 46 | 233 | 1.0 | 2.0 | 0.00 | 0.00 | 0.00 | 46 | 1014.7 |
| 20260503011459 | 46 | 227 | 1.0 | 1.0 | 0.00 | 0.00 | 0.00 | 45 | 1014.3 |
| 20260503010956 | 47 | 218 | 1.0 | 1.0 | 0.00 | 0.00 | 0.00 | 45 | 1014.3 |
| 20260503010453 | 47 | 214 | 1.0 | 2.0 | 0.00 | 0.00 | 0.00 | 44 | 1014.3 |
| 20260503005950 | 47 | 224 | 1.0 | 1.0 | 0.00 | 0.00 | 0.00 | 45 | 1014.3 |
| 20260503005447 | 48 | 259 | 2.0 | 2.0 | 0.00 | 0.00 | 0.00 | 44 | 1014.3 |
| 20260503004944 | 48 | 226 | 1.0 | 1.0 | 0.00 | 0.00 | 0.00 | 43 | 1014.0 |
| 20260503004441 | 48 | 213 | 1.0 | 1.0 | 0.00 | 0.00 | 0.00 | 41 | 1014.0 |
| 20260503003938 | 48 | 229 | 5.0 | 6.0 | 0.00 | 0.00 | 0.00 | 41 | 1014.0 |
| 20260503003435 | 48 | 225 | 1.0 | 2.0 | 0.00 | 0.00 | 0.00 | 43 | 1014.0 |
| 20260503002932 | 49 | 214 | 2.0 | 3.0 | 0.00 | 0.00 | 0.00 | 42 | 1014.0 |
| 20260503002429 | 49 | 283 | 4.0 | 5.0 | 0.00 | 0.00 | 0.00 | 41 | 1014.0 |
| 20260503001926 | 49 | 217 | 2.0 | 3.0 | 0.00 | 0.00 | 0.00 | 41 | 1014.0 |
| 20260503001422 | 49 | 209 | 4.0 | 6.0 | 0.00 | 0.00 | 0.00 | 42 | 1013.7 |
| 20260503000920 | 49 | 233 | 1.0 | 2.0 | 0.00 | 0.00 | 0.00 | 42 | 1013.7 |